Location: Strawberry
(45.6646°N, 111.9596°W)
Time: 06:26:51
(UTC+00:00)

Explorer 7 - Pass Details

Date: 12 October 2022
Orbit: 481 x 664 km, 50.3° (Epoch: 05 December)

Event Time Altitude Azimuth Distance (km) Brightness Sun altitude
Rises 13:09:14 0° 191° (S) 2,905 10.4 -6.3°
Reaches altitude 10° 13:12:14 10° 170° (S) 2,032 9.9 -5.7°
Maximum altitude 13:15:10 17° 131° (SE) 1,666 10.1 -5.2°
Drops below altitude 10° 13:18:09 10° 93° (E) 2,079 11.7 -4.7°
Sets 13:21:16 0° 73° (ENE) 3,005 12.0 -4.2°
